Location: C�mpuri de-Sus
(45.9500°N, 22.5500°E)
Time: 05:15:23
(UTC+00:00)

YAOGAN 1 - Pass Details

Date: 24 October 2021
Orbit: 618 x 620 km, 97.9° (Epoch: 04 December)

Event Time Altitude Azimuth Distance (km) Brightness Sun altitude
Rises 17:05:32 0° 161° (SSE) 2,884 5.8 -17.5°
Reaches altitude 10° 17:07:43 10° 160° (SSE) 1,982 4.9 -17.9°
Maximum altitude 17:12:01 78° 75° (ENE) 641 2.4 -18.7°
Drops below altitude 10° 17:16:22 10° 350° (N) 1,998 5.3 -19.4°
Sets 17:18:34 0° 349° (NNW) 2,909 6.2 -19.8°
